Location: Cary
(35.7910°N, 78.7810°W)
Time: 11:35:44
(UTC-05:00)

OTV 5 (USA 277) - Visible Passes

Search period start: 21 February 2018 00:00
Search period end: 03 March 2018 00:00
Orbit: 404 x 417 km, 43.0° (Epoch: 07 September)

Date Brightness Start Highest point End Pass type
(mag) Time Alt. Az. Time Alt. Az. Time Alt. Az.
21 Feb ? 04:34:42 14° ESE 04:34:42 14° ESE 04:35:31 10° E visible
21 Feb ? 06:07:29 15° WSW 06:10:06 60° NNW 06:13:22 10° ENE visible
22 Feb ? 05:19:05 86° ENE 05:19:05 86° ENE 05:22:19 10° ENE visible
23 Feb ? 04:30:34 15° ENE 04:30:34 15° ENE 04:31:14 10° ENE visible
23 Feb ? 06:03:20 16° WNW 06:05:26 32° NNW 06:08:26 10° NE visible
24 Feb ? 05:14:44 38° N 05:14:44 38° N 05:17:26 10° NE visible
25 Feb ? 04:26:04 12° ENE 04:26:04 12° ENE 04:26:25 10° ENE visible
25 Feb ? 05:58:49 14° NW 06:00:51 23° N 06:03:36 10° NE visible
26 Feb ? 05:10:07 25° N 05:10:07 25° N 05:12:30 10° NE visible
27 Feb ? 04:21:23 11° NE 04:21:23 11° NE 04:21:29 10° NE visible
27 Feb ? 05:54:08 12° NW 05:56:22 22° N 05:59:02 10° ENE visible
28 Feb ? 05:05:23 22° N 05:05:23 22° N 05:07:48 10° NE visible
01 Mar ? 04:16:39 10° NE 04:16:39 10° NE 04:16:39 10° NE visible
01 Mar ? 05:49:24 13° NW 05:51:50 27° NNE 05:54:43 10° ENE visible
02 Mar ? 05:00:41 24° N 05:00:41 24° N 05:03:23 10° ENE visible
